FWV4PU LYTV-LGSK

Flight info

Callsign FWV4PU
Flight time 0h 54m
Altitude 33000
Route LASTI DCT PETAK DCT DOBAR DCT TALAS UN130 TSL
Aircraft A320/M-SDE3FGHIRWY/LB1

Departure

Time 2026-05-04 18:41
Airport Tivat Airport (LYTV)

Arrival

Time 2026-05-04 19:36
Airport Skiathos Island National Airport (LGSK)
Time Latitude Longitude Altitude Speed Heading
2026-05-04 18:17 42.41080 18.71843 21 ft 0 kts 44°
2026-05-04 18:31 42.41071 18.71831 18 ft 4 kts 63°
2026-05-04 18:31 42.41070 18.71802 18 ft 4 kts 124°
2026-05-04 18:31 42.41088 18.71775 19 ft 3 kts 139°
2026-05-04 18:31 42.41090 18.71772 19 ft 0 kts 139°
2026-05-04 18:34 42.41087 18.71776 21 ft 4 kts 139°
2026-05-04 18:35 42.41055 18.71816 18 ft 6 kts 138°
2026-05-04 18:35 42.41024 18.71851 19 ft 5 kts 148°
2026-05-04 18:35 42.40999 18.71851 19 ft 4 kts 207°
2026-05-04 18:35 42.40979 18.71828 21 ft 3 kts 220°
2026-05-04 18:36 42.40968 18.71816 19 ft 1 kts 220°
2026-05-04 18:36 42.40932 18.71800 19 ft 11 kts 177°
2026-05-04 18:36 42.40841 18.71887 18 ft 22 kts 139°
2026-05-04 18:36 42.40717 18.72029 18 ft 24 kts 139°
2026-05-04 18:37 42.40591 18.72179 18 ft 24 kts 139°
2026-05-04 18:37 42.40468 18.72323 20 ft 24 kts 139°
2026-05-04 18:37 42.40346 18.72466 22 ft 22 kts 139°
2026-05-04 18:37 42.40230 18.72602 22 ft 22 kts 139°
2026-05-04 18:38 42.40114 18.72737 22 ft 21 kts 139°
2026-05-04 18:38 42.39997 18.72874 21 ft 23 kts 139°
2026-05-04 18:38 42.39878 18.73014 21 ft 23 kts 139°
2026-05-04 18:38 42.39765 18.73147 23 ft 21 kts 139°
2026-05-04 18:39 42.39648 18.73250 23 ft 19 kts 168°
2026-05-04 18:39 42.39637 18.73295 26 ft 3 kts 328°
2026-05-04 18:39 42.39652 18.73280 26 ft 0 kts 321°
2026-05-04 18:40 42.39652 18.73279 26 ft 1 kts 321°
2026-05-04 18:40 42.39857 18.73039 21 ft 78 kts 319°
2026-05-04 18:40 42.40436 18.72362 20 ft 139 kts 319°
2026-05-04 18:41 42.41271 18.71383 262 ft 165 kts 319°
2026-05-04 18:41 42.42047 18.70271 1014 ft 163 kts 293°
2026-05-04 18:41 42.42095 18.68767 1706 ft 166 kts 250°
2026-05-04 18:41 42.41365 18.67504 2135 ft 183 kts 219°
2026-05-04 18:42 42.40303 18.66374 2397 ft 205 kts 218°
2026-05-04 18:42 42.39121 18.65129 2729 ft 224 kts 218°
2026-05-04 18:42 42.37868 18.63808 3372 ft 230 kts 218°
2026-05-04 18:42 42.36610 18.62472 4157 ft 231 kts 218°
2026-05-04 18:43 42.35339 18.61112 4905 ft 234 kts 218°
2026-05-04 18:43 42.34052 18.59736 5634 ft 237 kts 217°
2026-05-04 18:43 42.32572 18.58741 6330 ft 242 kts 194°
2026-05-04 18:43 42.30861 18.58600 6872 ft 254 kts 172°
2026-05-04 18:44 42.29086 18.58918 7537 ft 260 kts 172°
2026-05-04 18:44 42.28500 18.59020 7776 ft 262 kts 172°
2026-05-04 18:44 42.25436 18.59581 9053 ft 268 kts 166°
2026-05-04 18:44 42.23692 18.60489 9786 ft 272 kts 148°
2026-05-04 18:45 42.22200 18.62058 10252 ft 285 kts 130°
2026-05-04 18:45 42.21388 18.63526 10550 ft 291 kts 118°
2026-05-04 18:45 42.20001 18.66677 11423 ft 298 kts 119°
2026-05-04 18:45 42.18920 18.69087 12141 ft 302 kts 119°
2026-05-04 18:46 42.17819 18.71512 12841 ft 306 kts 119°
2026-05-04 18:46 42.16724 18.74015 13366 ft 316 kts 114°
2026-05-04 18:46 42.15750 18.76783 13511 ft 338 kts 112°
2026-05-04 18:46 42.15092 18.78783 13616 ft 352 kts 111°
2026-05-04 18:47 42.14108 18.81882 13948 ft 365 kts 110°
2026-05-04 18:47 42.13109 18.85060 14484 ft 370 kts 110°
2026-05-04 18:47 42.12093 18.88260 15078 ft 374 kts 110°
2026-05-04 18:47 42.11056 18.91492 15671 ft 377 kts 111°
2026-05-04 18:48 42.10001 18.94741 16251 ft 381 kts 111°
2026-05-04 18:48 42.08925 18.98025 16828 ft 384 kts 111°
2026-05-04 18:48 42.07839 19.01335 17398 ft 388 kts 111°
2026-05-04 18:48 42.06745 19.04668 17964 ft 391 kts 111°
2026-05-04 18:49 42.05655 19.07992 18496 ft 394 kts 111°
2026-05-04 18:49 42.04544 19.11380 18961 ft 398 kts 111°
2026-05-04 18:49 42.03421 19.14805 19395 ft 402 kts 110°
2026-05-04 18:49 42.02283 19.18267 19830 ft 406 kts 110°
2026-05-04 18:50 42.01134 19.21758 20290 ft 410 kts 110°
2026-05-04 18:50 41.99977 19.25269 20734 ft 413 kts 111°
2026-05-04 18:50 41.98802 19.28820 21174 ft 417 kts 110°
2026-05-04 18:50 41.97618 19.32390 21622 ft 420 kts 110°
2026-05-04 18:51 41.96425 19.35990 22013 ft 424 kts 110°
2026-05-04 18:51 41.95221 19.39619 22434 ft 428 kts 110°
2026-05-04 18:51 41.94002 19.43291 22833 ft 431 kts 110°
2026-05-04 18:51 41.92773 19.46980 23260 ft 434 kts 110°
2026-05-04 18:52 41.91539 19.50682 23705 ft 436 kts 110°
2026-05-04 18:52 41.90298 19.54414 24063 ft 439 kts 110°
2026-05-04 18:52 41.89045 19.58177 24430 ft 442 kts 110°
2026-05-04 18:52 41.87788 19.61940 24768 ft 444 kts 110°
2026-05-04 18:53 41.86517 19.65736 25096 ft 447 kts 110°
2026-05-04 18:53 41.85241 19.69539 25433 ft 449 kts 110°
2026-05-04 18:53 41.83952 19.73374 25774 ft 451 kts 110°
2026-05-04 18:53 41.82654 19.77223 26115 ft 453 kts 111°
2026-05-04 18:54 41.81349 19.81086 26435 ft 456 kts 110°
2026-05-04 18:54 41.80042 19.84960 26750 ft 458 kts 110°
2026-05-04 18:54 41.78720 19.88875 27063 ft 461 kts 110°
2026-05-04 18:54 41.77397 19.92789 27377 ft 463 kts 110°
2026-05-04 18:55 41.76063 19.96734 27692 ft 466 kts 110°
2026-05-04 18:55 41.73372 20.04681 28302 ft 470 kts 110°
2026-05-04 18:55 41.72017 20.08667 28586 ft 472 kts 110°
2026-05-04 18:56 41.70647 20.12686 28861 ft 474 kts 111°
2026-05-04 18:56 41.69269 20.16714 29141 ft 477 kts 110°
2026-05-04 18:56 41.67884 20.20767 29391 ft 479 kts 110°
2026-05-04 18:56 41.66501 20.24820 29662 ft 481 kts 110°
2026-05-04 18:57 41.65107 20.28897 29912 ft 483 kts 110°
2026-05-04 18:57 41.63708 20.32991 30212 ft 484 kts 110°
2026-05-04 18:57 41.62307 20.37081 30563 ft 483 kts 110°
2026-05-04 18:57 41.60905 20.41150 30899 ft 482 kts 111°
2026-05-04 18:58 41.59519 20.45155 31251 ft 480 kts 111°
2026-05-04 18:58 41.58117 20.49203 31620 ft 479 kts 111°
2026-05-04 18:58 41.56727 20.53224 32006 ft 476 kts 111°
2026-05-04 18:58 41.55339 20.57233 32374 ft 474 kts 111°
2026-05-04 18:59 41.53955 20.61225 32702 ft 474 kts 111°
2026-05-04 18:59 41.52571 20.65216 33000 ft 474 kts 111°
2026-05-04 18:59 41.51183 20.69215 33136 ft 473 kts 111°
2026-05-04 18:59 41.49800 20.73193 33155 ft 472 kts 111°
2026-05-04 19:00 41.47035 20.81117 33179 ft 472 kts 110°
2026-05-04 19:00 41.44260 20.89049 33147 ft 472 kts 111°
2026-05-04 19:01 41.41474 20.96993 33146 ft 472 kts 111°
2026-05-04 19:01 41.38685 21.04923 33141 ft 472 kts 111°
2026-05-04 19:02 41.35892 21.12838 33133 ft 472 kts 111°
2026-05-04 19:02 41.33105 21.20736 33137 ft 471 kts 111°
2026-05-04 19:03 41.30315 21.28619 33130 ft 471 kts 111°
2026-05-04 19:03 41.27512 21.36499 33124 ft 471 kts 111°
2026-05-04 19:04 41.24704 21.44361 33117 ft 471 kts 111°
2026-05-04 19:04 41.21892 21.52221 33114 ft 471 kts 111°
2026-05-04 19:05 41.19078 21.60066 33111 ft 471 kts 111°
2026-05-04 19:05 41.16264 21.67913 33112 ft 471 kts 111°
2026-05-04 19:06 41.13438 21.75738 33110 ft 471 kts 111°
2026-05-04 19:06 41.10607 21.83567 33134 ft 470 kts 112°
2026-05-04 19:07 41.07703 21.91317 33126 ft 471 kts 118°
2026-05-04 19:07 41.03855 21.98401 33116 ft 474 kts 124°
2026-05-04 19:08 40.99886 22.05356 33108 ft 474 kts 124°
2026-05-04 19:08 40.95908 22.12322 33099 ft 474 kts 124°
2026-05-04 19:09 40.91943 22.19260 33134 ft 472 kts 125°
2026-05-04 19:09 40.87995 22.26170 33123 ft 470 kts 125°
2026-05-04 19:10 40.84060 22.33022 33107 ft 469 kts 125°
2026-05-04 19:10 40.80125 22.39863 33102 ft 468 kts 125°
2026-05-04 19:11 40.76160 22.46743 33089 ft 468 kts 126°
2026-05-04 19:11 40.72252 22.53500 33114 ft 465 kts 126°
2026-05-04 19:12 40.66377 22.63640 33106 ft 462 kts 126°
2026-05-04 19:13 40.62474 22.70360 33092 ft 461 kts 126°
2026-05-04 19:13 40.58569 22.77069 33078 ft 461 kts 126°
2026-05-04 19:13 40.56620 22.80415 32852 ft 458 kts 127°
2026-05-04 19:14 40.54687 22.83728 32580 ft 455 kts 127°
2026-05-04 19:14 40.52762 22.87016 32314 ft 453 kts 127°
2026-05-04 19:14 40.50838 22.90294 32059 ft 452 kts 127°
2026-05-04 19:14 40.48915 22.93553 31729 ft 451 kts 128°
2026-05-04 19:15 40.46760 22.96586 30715 ft 457 kts 138°
2026-05-04 19:15 40.44248 22.99114 30038 ft 454 kts 147°
2026-05-04 19:15 40.41500 23.01105 29398 ft 448 kts 155°
2026-05-04 19:15 40.38622 23.02612 28782 ft 442 kts 159°
2026-05-04 19:16 40.35765 23.04039 28180 ft 437 kts 158°
2026-05-04 19:16 40.32942 23.05448 27572 ft 432 kts 158°
2026-05-04 19:16 40.30138 23.06845 27006 ft 428 kts 158°
2026-05-04 19:16 40.27373 23.08220 26433 ft 424 kts 158°
2026-05-04 19:17 40.24624 23.09585 25856 ft 420 kts 158°
2026-05-04 19:17 40.21901 23.10935 25296 ft 417 kts 158°
2026-05-04 19:17 40.19201 23.12273 24730 ft 414 kts 158°
2026-05-04 19:17 40.16512 23.13605 24189 ft 411 kts 158°
2026-05-04 19:18 40.13845 23.14924 23646 ft 409 kts 158°
2026-05-04 19:18 40.11189 23.16235 23074 ft 405 kts 158°
2026-05-04 19:18 40.08566 23.17526 22586 ft 400 kts 158°
2026-05-04 19:18 40.05975 23.18801 22129 ft 395 kts 158°
2026-05-04 19:19 40.03411 23.20063 21662 ft 391 kts 158°
2026-05-04 19:19 40.00881 23.21310 21225 ft 387 kts 158°
2026-05-04 19:19 39.98373 23.22546 20783 ft 383 kts 158°
2026-05-04 19:19 39.95894 23.23767 20346 ft 380 kts 158°
2026-05-04 19:20 39.93426 23.24980 19909 ft 377 kts 158°
2026-05-04 19:20 39.90976 23.26183 19456 ft 375 kts 158°
2026-05-04 19:20 39.88542 23.27382 19006 ft 374 kts 158°
2026-05-04 19:20 39.86109 23.28578 18556 ft 373 kts 158°
2026-05-04 19:21 39.83681 23.29769 18050 ft 372 kts 158°
2026-05-04 19:21 39.81264 23.30949 17583 ft 370 kts 158°
2026-05-04 19:21 39.78863 23.32121 17107 ft 368 kts 158°
2026-05-04 19:21 39.76465 23.33291 16638 ft 367 kts 158°
2026-05-04 19:22 39.74080 23.34453 16160 ft 366 kts 158°
2026-05-04 19:22 39.71706 23.35611 15696 ft 365 kts 158°
2026-05-04 19:22 39.69336 23.36768 15217 ft 364 kts 158°
2026-05-04 19:22 39.66971 23.37925 14755 ft 363 kts 158°
2026-05-04 19:23 39.64606 23.39079 14280 ft 362 kts 158°
2026-05-04 19:23 39.62249 23.40228 13792 ft 362 kts 158°
2026-05-04 19:23 39.59891 23.41373 13279 ft 361 kts 158°
2026-05-04 19:23 39.57549 23.42511 12800 ft 358 kts 158°
2026-05-04 19:24 39.56003 23.43263 12480 ft 357 kts 158°
2026-05-04 19:24 39.53678 23.44392 11996 ft 356 kts 158°
2026-05-04 19:24 39.51365 23.45515 11498 ft 355 kts 158°
2026-05-04 19:24 39.49050 23.46638 10992 ft 355 kts 158°
2026-05-04 19:25 39.46745 23.47753 10625 ft 350 kts 158°
2026-05-04 19:25 39.44505 23.48834 10498 ft 338 kts 158°
2026-05-04 19:25 39.42338 23.49878 10375 ft 326 kts 158°
2026-05-04 19:25 39.40243 23.50887 10244 ft 316 kts 158°
2026-05-04 19:26 39.38196 23.51875 10046 ft 309 kts 158°
2026-05-04 19:26 39.36177 23.52855 9772 ft 311 kts 158°
2026-05-04 19:26 39.34152 23.53839 9380 ft 310 kts 158°
2026-05-04 19:26 39.32135 23.54817 8977 ft 309 kts 158°
2026-05-04 19:27 39.30137 23.55783 8623 ft 306 kts 158°
2026-05-04 19:27 39.28148 23.56740 8278 ft 303 kts 158°
2026-05-04 19:27 39.26169 23.57689 7852 ft 303 kts 158°
2026-05-04 19:27 39.24215 23.58626 7540 ft 298 kts 157°
2026-05-04 19:28 39.22286 23.59556 7016 ft 302 kts 157°
2026-05-04 19:28 39.20305 23.60493 6551 ft 303 kts 161°
2026-05-04 19:28 39.18254 23.60857 6117 ft 294 kts 181°
2026-05-04 19:28 39.16309 23.60379 5740 ft 280 kts 201°
2026-05-04 19:29 39.14592 23.59320 5374 ft 267 kts 208°
2026-05-04 19:29 39.12967 23.58252 5026 ft 257 kts 208°
2026-05-04 19:29 39.11395 23.57226 4688 ft 250 kts 208°
2026-05-04 19:29 39.09870 23.56234 4364 ft 242 kts 208°
2026-05-04 19:30 39.08372 23.55257 3968 ft 239 kts 208°
2026-05-04 19:30 39.06912 23.54306 3651 ft 232 kts 208°
2026-05-04 19:30 39.05491 23.53378 3357 ft 226 kts 208°
2026-05-04 19:30 39.04104 23.52475 3053 ft 220 kts 208°
2026-05-04 19:31 39.02799 23.51533 2810 ft 210 kts 224°
2026-05-04 19:31 39.02061 23.50070 2667 ft 186 kts 258°
2026-05-04 19:31 39.02071 23.48508 2496 ft 167 kts 290°
2026-05-04 19:31 39.02629 23.47292 2392 ft 155 kts 316°
2026-05-04 19:32 39.03495 23.46604 2272 ft 144 kts 340°
2026-05-04 19:32 39.04470 23.46480 2144 ft 142 kts
2026-05-04 19:32 39.05443 23.46750 2035 ft 143 kts
2026-05-04 19:32 39.06422 23.46816 1892 ft 141 kts 354°
2026-05-04 19:33 39.07406 23.46829 1819 ft 142 kts
2026-05-04 19:33 39.08392 23.46965 1781 ft 143 kts
2026-05-04 19:33 39.09381 23.47148 1678 ft 144 kts
2026-05-04 19:33 39.10372 23.47370 1444 ft 145 kts
2026-05-04 19:34 39.11362 23.47633 1222 ft 145 kts
2026-05-04 19:34 39.12339 23.47977 967 ft 145 kts 15°
2026-05-04 19:34 39.13302 23.48372 750 ft 145 kts 21°
2026-05-04 19:34 39.14241 23.48834 583 ft 143 kts 17°
2026-05-04 19:35 39.15189 23.49199 426 ft 142 kts 19°
2026-05-04 19:35 39.16111 23.49622 247 ft 141 kts 18°
2026-05-04 19:35 39.17027 23.50045 53 ft 139 kts 19°
2026-05-04 19:35 39.17826 23.50401 40 ft 86 kts 20°
2026-05-04 19:36 39.18186 23.50572 52 ft 43 kts 19°
2026-05-04 19:36 39.18389 23.50640 56 ft 14 kts 358°
2026-05-04 19:36 39.18408 23.50662 56 ft 3 kts 156°
2026-05-04 19:36 39.18351 23.50642 56 ft 14 kts 200°
2026-05-04 19:37 39.18243 23.50595 55 ft 18 kts 199°
2026-05-04 19:37 39.18108 23.50534 47 ft 23 kts 199°
2026-05-04 19:37 39.17981 23.50477 44 ft 13 kts 202°
2026-05-04 19:37 39.17924 23.50386 42 ft 13 kts 248°
2026-05-04 19:38 39.17924 23.50355 43 ft 0 kts 283°
2026-05-04 19:39 39.17928 23.50339 44 ft 4 kts 289°
2026-05-04 19:39 39.17940 23.50297 46 ft 4 kts 290°
2026-05-04 19:39 39.17948 23.50271 51 ft 2 kts 290°
2026-05-04 19:39 39.17952 23.50255 49 ft 1 kts 289°
2026-05-04 19:40 39.17954 23.50249 51 ft 1 kts 289°
2026-05-04 19:40 39.17955 23.50245 52 ft 0 kts 289°
2026-05-04 19:40 39.17955 23.50243 53 ft 0 kts 289°